• In Latvia
  • List of Countries
  • For 7 days
  • Water Temperature
  • Satellite Maps
  • Weather Map
  • Weather Widgets
  • user-avatar
    Login

    Hourly Weather Solden

    Today, 20 January, Saturday

    Time Temperature Precipitation Wind Pressure Humidity
    00:00 -12°C° 0.1 mm 1 mps 573 mmHg 80%
    01:00 -11°C° 0 mm 1 mps 573 mmHg 82%
    02:00 -12°C° 0.2 mm 1 mps 573 mmHg 83%
    03:00 -12°C° 0.2 mm 1 mps 573 mmHg 85%
    04:00 -12°C° 0.2 mm 1 mps 573 mmHg 86%
    05:00 -15°C° 0 mm 2 mps 573 mmHg 86%
    06:00 -16°C° 0 mm 2 mps 573 mmHg 86%
    07:00 -15°C° 0 mm 2 mps 572 mmHg 84%
    08:00 -15°C° 0 mm 2 mps 573 mmHg 82%
    09:00 -14°C° 0 mm 2 mps 573 mmHg 80%
    10:00 -11°C° 0 mm 1 mps 574 mmHg 78%
    11:00 -10°C° 0 mm 2 mps 574 mmHg 74%
    12:00 -9°C° 0 mm 2 mps 574 mmHg 70%
    13:00 -7°C° 0 mm 2 mps 574 mmHg 65%
    14:00 -8°C° 0 mm 2 mps 573 mmHg 71%
    15:00 -8°C° 0 mm 2 mps 572 mmHg 77%
    16:00 -9°C° 0 mm 2 mps 572 mmHg 83%
    17:00 -10°C° 0.3 mm 2 mps 571 mmHg 86%
    18:00 -13°C° 0.3 mm 3 mps 570 mmHg 88%
    19:00 -13°C° 0.3 mm 3 mps 569 mmHg 91%
    20:00 -13°C° 1 mm 3 mps 569 mmHg 92%
    21:00 -13°C° 1 mm 3 mps 568 mmHg 93%
    22:00 -13°C° 1 mm 3 mps 568 mmHg 94%
    23:00 -12°C° 1.1 mm 2 mps 568 mmHg 94%

    Tomorrow, 21 January, Sunday

    Time Temperature Precipitation Wind Pressure Humidity
    00:00 -12°C° 1.1 mm 2 mps 569 mmHg 94%
    01:00 -10°C° 1.1 mm 2 mps 569 mmHg 94%
    02:00 -9°C° 0.5 mm 1 mps 569 mmHg 93%
    03:00 -8°C° 0.5 mm 1 mps 569 mmHg 92%
    04:00 -8°C° 0.5 mm 1 mps 569 mmHg 92%
    05:00 -8°C° 0.9 mm 1 mps 569 mmHg 91%
    06:00 -8°C° 0.9 mm 2 mps 570 mmHg 91%
    07:00 -8°C° 0.9 mm 2 mps 570 mmHg 91%
    08:00 -8°C° 0.7 mm 2 mps 571 mmHg 91%
    09:00 -8°C° 0.7 mm 3 mps 571 mmHg 91%
    10:00 -8°C° 0.7 mm 3 mps 572 mmHg 91%
    11:00 -8°C° 0.5 mm 3 mps 573 mmHg 89%
    12:00 -8°C° 0.5 mm 3 mps 573 mmHg 87%
    13:00 -8°C° 0.5 mm 3 mps 574 mmHg 85%
    14:00 -8°C° 0.2 mm 3 mps 574 mmHg 85%
    15:00 -9°C° 0.2 mm 3 mps 574 mmHg 84%
    16:00 -10°C° 0.2 mm 3 mps 574 mmHg 83%
    17:00 -12°C° 0.1 mm 3 mps 575 mmHg 84%
    18:00 -13°C° 0.1 mm 3 mps 575 mmHg 84%
    19:00 -14°C° 0.1 mm 3 mps 575 mmHg 85%
    20:00 -13°C° 0.2 mm 2 mps 575 mmHg 85%
    21:00 -13°C° 0.2 mm 2 mps 575 mmHg 84%
    22:00 -13°C° 0.2 mm 2 mps 575 mmHg 84%
    23:00 -12°C° 0.3 mm 2 mps 575 mmHg 84%

    Day after tomorrow, 22 January, Monday

    Time Temperature Precipitation Wind Pressure Humidity
    00:00 -12°C° 0.3 mm 2 mps 576 mmHg 85%
    01:00 -9°C° 0.3 mm 1 mps 576 mmHg 86%
    02:00 -9°C° 0.8 mm 2 mps 576 mmHg 87%
    03:00 -9°C° 0.8 mm 2 mps 575 mmHg 88%
    04:00 -8°C° 0.8 mm 2 mps 575 mmHg 89%
    05:00 -8°C° 1.4 mm 2 mps 575 mmHg 90%
    06:00 -8°C° 1.4 mm 2 mps 575 mmHg 91%
    07:00 -8°C° 1.4 mm 2 mps 575 mmHg 92%
    08:00 -7°C° 1.5 mm 2 mps 576 mmHg 92%
    09:00 -6°C° 1.5 mm 2 mps 576 mmHg 92%
    10:00 -6°C° 1.5 mm 2 mps 577 mmHg 92%
    11:00 -5°C° 0.6 mm 2 mps 577 mmHg 92%
    12:00 -4°C° 0.6 mm 2 mps 578 mmHg 93%
    13:00 -3°C° 0.6 mm 2 mps 578 mmHg 94%
    14:00 -3°C° 0 mm 2 mps 578 mmHg 93%
    15:00 -3°C° 0 mm 2 mps 578 mmHg 92%
    16:00 -3°C° 0 mm 2 mps 578 mmHg 91%
    17:00 -4°C° 0.1 mm 2 mps 578 mmHg 90%
    18:00 -5°C° 0.1 mm 2 mps 578 mmHg 88%
    19:00 -6°C° 0.1 mm 2 mps 578 mmHg 87%
    20:00 -6°C° 0.1 mm 2 mps 578 mmHg 87%
    21:00 -6°C° 0.1 mm 2 mps 578 mmHg 87%
    22:00 -6°C° 0.1 mm 2 mps 578 mmHg 86%
    23:00 -6°C° 0.3 mm 2 mps 578 mmHg 87%

    23 January, Tuesday

    Time Temperature Precipitation Wind Pressure Humidity
    00:00 -4°C° 0.3 mm 1 mps 578 mmHg 88%
    01:00 -4°C° 0.3 mm 1 mps 578 mmHg 89%
    02:00 -4°C° 0.3 mm 1 mps 579 mmHg 89%
    03:00 -4°C° 0.3 mm 1 mps 579 mmHg 89%
    04:00 -5°C° 0.3 mm 2 mps 579 mmHg 90%
    05:00 -5°C° 0.6 mm 2 mps 579 mmHg 90%
    06:00 -5°C° 0.6 mm 2 mps 580 mmHg 91%
    07:00 -5°C° 0.6 mm 2 mps 580 mmHg 91%
    08:00 -5°C° 0.1 mm 2 mps 581 mmHg 91%
    09:00 -4°C° 0.1 mm 2 mps 582 mmHg 92%
    10:00 -3°C° 0.1 mm 2 mps 583 mmHg 92%
    11:00 -3°C° 0 mm 2 mps 583 mmHg 93%
    12:00 -2°C° 0 mm 2 mps 584 mmHg 94%
    13:00 -2°C° 0 mm 2 mps 584 mmHg 95%
    14:00 -2°C° 0 mm 2 mps 584 mmHg 94%
    15:00 -3°C° 0 mm 2 mps 584 mmHg 94%
    16:00 -3°C° 0 mm 2 mps 584 mmHg 93%
    17:00 -5°C° 0 mm 2 mps 584 mmHg 91%
    18:00 -7°C° 0 mm 2 mps 583 mmHg 88%
    19:00 -8°C° 0 mm 2 mps 583 mmHg 86%
    20:00 -8°C° 0 mm 1 mps 583 mmHg 82%
    21:00 -8°C° 0 mm 1 mps 583 mmHg 78%
    22:00 -8°C° 0 mm 1 mps 583 mmHg 74%
    23:00 -9°C° 0 mm 1 mps 583 mmHg 71%

    24 January, Wednesday

    Time Temperature Precipitation Wind Pressure Humidity
    00:00 -9°C° 0 mm 1 mps 584 mmHg 68%
    01:00 -9°C° 0 mm 1 mps 584 mmHg 65%
    02:00 -9°C° 0 mm 1 mps 584 mmHg 64%
    03:00 -9°C° 0 mm 1 mps 583 mmHg 63%
    04:00 -9°C° 0 mm 1 mps 583 mmHg 61%
    05:00 -9°C° 0 mm 1 mps 584 mmHg 60%
    06:00 -9°C° 0 mm 1 mps 584 mmHg 59%
    07:00 -9°C° 0 mm 1 mps 584 mmHg 58%
    08:00 -7°C° 0 mm 1 mps 585 mmHg 61%
    09:00 -4°C° 0 mm 1 mps 586 mmHg 64%
    10:00 -3°C° 0 mm 1 mps 587 mmHg 66%
    11:00 -2°C° 0 mm 1 mps 587 mmHg 72%
    12:00 -1°C° 0 mm 1 mps 587 mmHg 79%
    13:00 0°C° 0 mm 1 mps 587 mmHg 85%
    14:00 0°C° 0 mm 1 mps 587 mmHg 84%
    15:00 -1°C° 0 mm 1 mps 586 mmHg 83%
    16:00 -1°C° 0 mm 1 mps 586 mmHg 82%
    17:00 -3°C° 0 mm 1 mps 585 mmHg 80%
    18:00 -4°C° 0 mm 1 mps 585 mmHg 78%
    19:00 -7°C° 0 mm 1 mps 584 mmHg 75%
    20:00 -7°C° 0 mm 1 mps 584 mmHg 74%
    21:00 -8°C° 0 mm 2 mps 584 mmHg 72%
    22:00 -9°C° 0 mm 2 mps 584 mmHg 70%
    23:00 -9°C° 0 mm 2 mps 584 mmHg 70%

    25 January, Thursday

    Time Temperature Precipitation Wind Pressure Humidity
    00:00 -9°C° 0 mm 2 mps 584 mmHg 69%
    01:00 -9°C° 0 mm 2 mps 583 mmHg 69%
    02:00 -9°C° 0 mm 2 mps 583 mmHg 68%
    03:00 -9°C° 0 mm 2 mps 583 mmHg 68%
    04:00 -9°C° 0 mm 2 mps 583 mmHg 68%
    05:00 -9°C° 0 mm 2 mps 582 mmHg 67%
    06:00 -9°C° 0 mm 2 mps 582 mmHg 67%
    07:00 -9°C° 0 mm 2 mps 582 mmHg 67%
    08:00 -7°C° 0 mm 1 mps 583 mmHg 69%
    09:00 -6°C° 0 mm 1 mps 583 mmHg 70%
    10:00 -3°C° 0 mm 1 mps 584 mmHg 72%
    11:00 -2°C° 0 mm 1 mps 584 mmHg 76%
    12:00 -1°C° 0 mm 1 mps 584 mmHg 79%
    13:00 0°C° 0 mm 1 mps 584 mmHg 83%
    14:00 -1°C° 0 mm 1 mps 583 mmHg 85%
    15:00 -3°C° 0 mm 2 mps 582 mmHg 87%
    16:00 -4°C° 0 mm 2 mps 582 mmHg 89%
    17:00 -5°C° 0 mm 2 mps 581 mmHg 89%
    18:00 -6°C° 0 mm 2 mps 581 mmHg 90%
    19:00 -7°C° 0 mm 2 mps 580 mmHg 91%
    20:00 -7°C° 0 mm 2 mps 580 mmHg 91%
    21:00 -7°C° 0 mm 2 mps 580 mmHg 92%
    22:00 -8°C° 0 mm 2 mps 580 mmHg 92%
    23:00 -7°C° 0 mm 2 mps 580 mmHg 92%
    Show more